Flag for U.S.A. Weather past 2 weeks in Cocoa Beach, Florida, U.S.A.

Now
67 °F

Passing clouds.


Feels Like: 67 °F
Forecast: 68 / 77 °F
Wind: 15 mph from Northwest

Location: Cocoa / Patrick Air Force Base

Current Time: Oct 25, 2014 at 8:49:16 AM

Latest Report: Oct 25, 2014 at 7:58 AM


Visibility: 10 mi

Pressure: 29.96 "Hg

Humidity: 75%

Dew point: 58 °F

Location of Cocoa BeachLocation

Historic Weather in Cocoa Beach — Graph

°F

Cocoa Beach temperature yesterday

Maximum temperature yesterday: 79 °F (at 12:58 PM)
Minimum temperature yesterday: 71 °F (at 6:58 AM)
Average temperature yesterday: 75 °F

Past Weeks' High & Low Weather Summary

 TemperatureHumidityPressure
High87 °F (Oct 14, 12:58 PM)98% (Oct 22, 6:58 AM)30.13 "Hg (Oct 22, 6:58 AM)
Low67 °F (Oct 25, 7:58 AM)45% (Oct 18, 3:58 PM)29.88 "Hg (Oct 16, 3:58 PM)
Average77 °F71%29.99 "Hg
* Reported Oct 10 7:58 AM — Oct 25 7:58 AM, Cocoa Beach, Weather by CustomWeather, © 2014

Note: Actual official high and low records may vary slightly from our data, if they occured in-between our weather recording intervals... More about our weather records

Advertising

Cocoa Beach weather history for previous 24 hours

 ConditionsComfort  
Time TempWeatherWind HumidityBarometerVisibility
7:58 AM
Oct 25
67 °FPassing clouds.15 mph75%29.96 "Hg10 mi
6:58 AM67 °FPassing clouds.16 mph78%29.95 "Hg10 mi
5:58 AM68 °FPassing clouds.17 mph79%29.94 "Hg10 mi
4:58 AM68 °FOvercast.13 mph80%29.93 "Hg10 mi
3:58 AM68 °FPassing clouds.14 mph83%29.93 "Hg10 mi
2:58 AM69 °FPassing clouds.10 mph80%29.93 "Hg10 mi
1:58 AM70 °FClear.9 mph77%29.94 "Hg10 mi
12:58 AM74 °FOvercast.9 mph59%29.95 "Hg10 mi
11:58 PM
Oct 24
74 °FOvercast.9 mph57%29.96 "Hg10 mi
10:58 PM75 °FOvercast.7 mph57%29.96 "Hg10 mi
9:58 PM75 °FOvercast.13 mph57%29.94 "Hg10 mi
8:58 PM75 °FOvercast.14 mph57%29.93 "Hg10 mi
7:58 PM74 °FOvercast.13 mph55%29.93 "Hg10 mi
6:58 PM74 °FOvercast.12 mph56%29.92 "Hg10 mi
5:58 PM75 °FPartly sunny.9 mph54%29.91 "Hg10 mi
4:58 PM76 °FOvercast.16 mph57%29.92 "Hg10 mi
3:58 PM77 °FPartly sunny.13 mph54%29.93 "Hg10 mi
2:58 PM78 °FPassing clouds.13 mph53%29.94 "Hg10 mi
1:58 PM78 °FPartly sunny.16 mph55%29.95 "Hg10 mi
12:58 PM79 °FSunny.13 mph54%29.97 "Hg10 mi
11:58 AM78 °FMostly cloudy.14 mph57%29.99 "Hg10 mi
10:58 AM77 °FBroken clouds.13 mph58%29.99 "Hg10 mi
9:58 AM77 °FSunny.9 mph52%29.99 "Hg10 mi
8:58 AM76 °FPartly sunny.13 mph56%29.97 "Hg10 mi
Weather by CustomWeather, © 2014

See weather overviewHow to use our weather pages